[[{"header":{"parameterUnit":"m.s-1","parameterCategory":1,"la1":30.2991,"la2":30.254,"lo1":-89.0895,"lo2":-89.0444,"dx":0.0017,"dy":0.0017,"nx":28,"ny":28,"refTime":"2023-01-23T03:00:00:Z","depth":0,"parameterNumber":2,"parameterNumberName":"U-component_of_WINDS"},"data":[0,0,0,0,0,0,0,0,0,0,0,0,0,0,0,0,0,0,0,0,0,0,0,0,0,0,0,0,0,0,0,0,0,0,0,0,0,0,0,0,0,0,0,0,0,0,0,0,0,0,0,0,0,0,0,0,0,0,-2.5565,-2.5565,0,-2.5536,-2.5535,-2.5535,-2.547,-2.5468,-2.5467,-2.5466,-2.5436,-2.5437,-2.5437,0,0,0,0,0,0,0,0,0,0,0,0,0,-2.5568,-2.5568,-2.5565,-2.5565,-2.5565,-2.5536,-2.5535,-2.5535,-2.547,-2.5468,-2.5467,-2.5465,-2.5436,-2.5437,-2.5437,0,0,0,0,0,0,0,0,0,0,0,0,0,-2.5555,-2.5568,-2.5565,-2.5529,-2.5525,-2.5536,-2.5535,-2.5535,-2.547,-2.5468,-2.5466,-2.5464,-2.5436,-2.5436,-2.5437,-2.5481,0,0,-2.5439,-2.544,0,0,0,0,0,0,0,0,-2.5556,-2.5555,-2.5534,-2.5531,-2.5527,-2.5504,-2.5525,-2.5517,-2.5471,-2.5491,-2.5466,-2.5463,-2.5461,-2.5459,-2.5458,-2.548,-2.5479,-2.5439,-2.544,-2.544,-2.544,0,0,0,0,0,0,0,-2.5557,-2.5556,-2.5554,-2.5534,-2.553,-2.5514,-2.551,-2.5523,-2.5487,-2.5489,-2.5484,-2.5482,-2.5458,-2.5457,-2.5457,-2.5478,-2.5439,-2.544,-2.544,-2.5441,-2.5536,-2.5538,0,0,0,0,0,0,-2.5563,-2.5557,-2.5555,-2.5553,-2.5537,-2.5516,-2.5511,-2.5514,-2.5487,-2.5481,-2.5483,-2.5479,-2.5457,-2.5456,-2.5455,-2.5506,-2.544,-2.5441,-2.5441,-2.5534,-2.5537,-2.5539,0,0,0,0,0,0,-2.5563,-2.5563,-2.5556,-2.5554,-2.5552,-2.5518,-2.5521,-2.5514,-2.5513,-2.5483,-2.5476,-2.5489,-2.5456,-2.5454,-2.5476,-2.5504,-2.5441,-2.5442,-2.5532,-2.5535,-2.5538,-2.5607,0,0,0,0,0,0,-2.5564,-2.5564,-2.558,-2.5555,-2.5552,-2.5576,-2.5523,-2.5515,-2.5515,-2.5508,-2.5486,-2.5481,-2.5454,-2.5475,-2.5476,-2.5504,-2.5442,-2.5529,-2.5533,-2.5537,-2.5602,-2.5612,-2.5621,0,0,0,0,0,-2.5564,-2.56,-2.5581,-2.5581,-2.5571,-2.5578,-2.5576,-2.5544,-2.5517,-2.5533,-2.5514,-2.5481,-2.5501,-2.5478,-2.5479,-2.5507,-2.5527,-2.5532,-2.5537,-2.5598,-2.561,-2.562,0,0,0,0,0,0,-2.563,-2.5596,-2.5574,-2.5604,-2.5594,-2.5567,-2.5586,-2.5558,-2.5557,-2.5551,-2.5512,-2.5507,-2.5534,-2.5522,-2.5497,-2.5549,-2.5509,-2.5514,-2.5555,-2.5566,-2.5576,-2.5577,-2.5443,0,0,0,0,0,-2.5648,-2.5655,-2.5626,-2.5655,-2.5651,-2.562,-2.5621,-2.5598,-2.5586,-2.5582,-2.5564,-2.5555,-2.5559,-2.5562,-2.5564,-2.56,-2.5595,-2.562,-2.563,-2.5637,-2.5642,-2.5661,-2.5672,-2.5555,-2.5555,-2.5555,0,0,-2.5685,-2.5667,-2.5675,-2.5668,-2.5657,-2.5667,-2.5617,-2.5629,-2.5635,-2.5584,-2.5603,-2.559,-2.5576,-2.5606,-2.5618,-2.5597,-2.5674,-2.5644,-2.565,-2.565,-2.5667,-2.5679,-2.5688,-2.5558,-2.5558,-2.5557,0,0,-2.5757,-2.5745,-2.5767,-2.5759,-2.5744,-2.5723,-2.5729,-2.5706,-2.5695,-2.5713,-2.5675,-2.5683,-2.5691,-2.5683,-2.568,-2.5752,-2.5722,-2.5753,-2.5802,-2.5821,-2.583,-2.5838,-2.5864,-2.5874,-2.5758,-2.5759,-2.5759,0,-2.5805,-2.5817,-2.5783,-2.5797,-2.5796,-2.575,-2.5773,-2.5766,-2.5753,-2.5753,-2.573,-2.5739,-2.5727,-2.5755,-2.5772,-2.5771,-2.5777,-2.5755,-2.5832,-2.584,-2.5846,-2.587,-2.588,-2.5762,-2.5762,-2.5762,-2.5761,0,-2.5877,-2.5886,-2.5907,-2.5895,-2.5896,-2.5915,-2.5884,-2.5889,-2.5866,-2.5848,-2.5868,-2.5852,-2.585,-2.5855,-2.5832,-2.5879,-2.5867,-2.5839,-2.5798,-2.5862,-2.5884,-2.5893,-2.5768,-2.5767,-2.5765,-2.5765,0,0,-2.5988,-2.5959,-2.5967,-2.5961,-2.5942,-2.5949,-2.5967,-2.5965,-2.597,-2.5963,-2.5977,-2.5985,-2.5959,-2.5956,-2.5933,-2.595,-2.6008,-2.5919,-2.5918,-2.5936,-2.6059,-2.608,-2.6091,-2.5988,-2.599,-2.5991,-2.606,0,-2.6056,-2.6083,-2.6054,-2.6087,-2.6096,-2.6053,-2.6069,-2.6059,-2.6043,-2.6049,-2.6031,-2.6038,-2.6003,-2.6001,-2.6016,-2.5998,-2.6032,-2.5992,-2.6001,-2.6002,-2.6005,-2.6102,-2.6124,-2.619,-2.6068,-2.607,-2.6071,0,-2.6138,-2.6135,-2.617,-2.615,-2.6152,-2.6166,-2.6163,-2.6168,-2.6157,-2.6145,-2.6142,-2.6114,-2.6131,-2.6092,-2.6114,-2.6088,-2.609,-2.6082,-2.6084,-2.6083,-2.604,-2.6104,-2.621,-2.622,-2.6084,-2.6083,-2.6082,0,-2.6216,-2.622,-2.6242,-2.6239,-2.6216,-2.6227,-2.6218,-2.6205,-2.6206,-2.6204,-2.6204,-2.6204,-2.6203,-2.6204,-2.6177,-2.6151,-2.6203,-2.6162,-2.6193,-2.6194,-2.6205,-2.6205,-2.6313,-2.6208,-2.6208,-2.6208,-2.6207,0,-2.6294,-2.6317,-2.6277,-2.629,-2.6315,-2.6281,-2.6307,-2.6294,-2.6283,-2.6293,-2.6257,-2.6267,-2.6231,-2.6238,-2.6217,-2.624,-2.624,-2.623,-2.6224,-2.6233,-2.6234,-2.6233,-2.6228,-2.621,-2.621,-2.6209,-2.6209,0,-2.6384,-2.6358,-2.6379,-2.6356,-2.6351,-2.637,-2.6351,-2.6362,-2.6345,-2.6358,-2.636,-2.6332,-2.6339,-2.6312,-2.6314,-2.63,-2.6333,-2.632,-2.6337,-2.6332,-2.6365,-2.6362,-2.6476,-2.6489,-2.6376,-2.6378,-2.6379,0,-2.6435,-2.6452,-2.6431,-2.6435,-2.6428,-2.6436,-2.6437,-2.6405,-2.6408,-2.6398,-2.6411,-2.6415,-2.6416,-2.6428,-2.6409,-2.641,-2.6397,-2.6437,-2.6397,-2.6405,-2.6397,-2.6396,-2.6398,-2.6445,-2.6446,-2.6447,-2.6448,0,-2.6529,-2.6516,-2.6518,-2.6518,-2.652,-2.6518,-2.6513,-2.6519,-2.6484,-2.649,-2.6496,-2.6497,-2.65,-2.6504,-2.6502,-2.6493,-2.6465,-2.6461,-2.6468,-2.6477,-2.6486,-2.6482,-2.6359,-2.6458,-2.6457,-2.6456,-2.6456,-2.6455,-2.6601,-2.6614,-2.6602,-2.6606,-2.66,-2.6596,-2.6606,-2.659,-2.6595,-2.6594,-2.6575,-2.6586,-2.6576,-2.657,-2.6564,-2.6572,-2.6554,-2.6564,-2.6567,-2.657,-2.6576,-2.6486,-2.6572,-2.6571,-2.6571,-2.6571,-2.6571,0,-2.6693,-2.6683,-2.6688,-2.6682,-2.6686,-2.666,-2.6654,-2.6659,-2.6668,-2.6661,-2.6663,-2.6671,-2.6676,-2.6657,-2.6659,-2.6669,-2.6656,-2.6671,-2.6669,-2.6668,-2.6592,-2.6585,-2.6681,-2.6681,-2.6681,-2.6681,-2.6681,-2.6681,-2.6741,-2.6761,-2.6747,-2.6765,-2.6755,-2.6764,-2.6763,-2.676,-2.6754,-2.6765,-2.6768,-2.6756,-2.6745,-2.6746,-2.6749,-2.6743,-2.6746,-2.6764,-2.6755,-2.6684,-2.6673,-2.6663,-2.6656,-2.6765,-2.6765,-2.6829,-2.683,-2.683]},{"header":{"parameterUnit":"m.s-1","parameterCategory":1,"la1":30.2991,"la2":30.254,"lo1":-89.0895,"lo2":-89.0444,"dx":0.0017,"dy":0.0017,"nx":28,"ny":28,"refTime":"2023-01-23T03:00:00:Z","depth":0,"parameterNumber":3,"parameterNumberName":"V-component_of_WINDS"},"data":[0,0,0,0,0,0,0,0,0,0,0,0,0,0,0,0,0,0,0,0,0,0,0,0,0,0,0,0,0,0,0,0,0,0,0,0,0,0,0,0,0,0,0,0,0,0,0,0,0,0,0,0,0,0,0,0,0,0,-4.3375,-4.3376,0,-4.3457,-4.3458,-4.3459,-4.345,-4.3448,-4.3447,-4.3446,-4.3526,-4.3529,-4.3532,0,0,0,0,0,0,0,0,0,0,0,0,0,-4.3205,-4.3208,-4.3375,-4.3376,-4.3377,-4.3457,-4.3458,-4.3459,-4.345,-4.3448,-4.3447,-4.3445,-4.3525,-4.3529,-4.3533,0,0,0,0,0,0,0,0,0,0,0,0,0,-4.3282,-4.3209,-4.3375,-4.3382,-4.3383,-4.3457,-4.3458,-4.346,-4.345,-4.3448,-4.3446,-4.3444,-4.3523,-4.3528,-4.3533,-4.3603,0,0,-4.3548,-4.3551,0,0,0,0,0,0,0,0,-4.3278,-4.3288,-4.338,-4.3381,-4.3383,-4.3441,-4.3428,-4.3508,-4.3451,-4.3425,-4.3446,-4.3443,-4.3499,-4.3506,-4.3525,-4.3607,-4.3611,-4.3549,-4.3552,-4.3554,-4.3556,0,0,0,0,0,0,0,-4.3272,-4.3285,-4.3407,-4.3381,-4.3383,-4.338,-4.3388,-4.3443,-4.3472,-4.3427,-4.3426,-4.3436,-4.3499,-4.3521,-4.3527,-4.3612,-4.3549,-4.3553,-4.3556,-4.3558,-4.3756,-4.3758,0,0,0,0,0,0,-4.3266,-4.328,-4.3405,-4.341,-4.3325,-4.3384,-4.3394,-4.3425,-4.3471,-4.3476,-4.3438,-4.3436,-4.3513,-4.3521,-4.353,-4.3616,-4.3554,-4.3559,-4.3562,-4.3753,-4.3756,-4.3759,0,0,0,0,0,0,-4.3262,-4.3277,-4.3401,-4.3345,-4.3361,-4.3389,-4.3423,-4.3427,-4.3448,-4.348,-4.3484,-4.3455,-4.3512,-4.3523,-4.3586,-4.3619,-4.3561,-4.3566,-4.3751,-4.3754,-4.3757,-4.3788,0,0,0,0,0,0,-4.3257,-4.3276,-4.3304,-4.3346,-4.3364,-4.3457,-4.3426,-4.343,-4.3458,-4.3455,-4.3496,-4.3501,-4.3511,-4.3578,-4.3591,-4.3625,-4.357,-4.3748,-4.3752,-4.3756,-4.3784,-4.3792,-4.3799,0,0,0,0,0,-4.3251,-4.3308,-4.3305,-4.332,-4.3399,-4.3459,-4.3469,-4.348,-4.346,-4.3488,-4.3508,-4.35,-4.3613,-4.3585,-4.3599,-4.3634,-4.3746,-4.3751,-4.3756,-4.3781,-4.3791,-4.3799,0,0,0,0,0,0,-4.3267,-4.3314,-4.3311,-4.3383,-4.3417,-4.3457,-4.3493,-4.349,-4.3529,-4.3525,-4.3536,-4.3546,-4.3609,-4.3628,-4.3596,-4.3705,-4.3677,-4.3685,-4.3691,-4.37,-4.3707,-4.3702,-4.3574,0,0,0,0,0,-4.3279,-4.3325,-4.3363,-4.3423,-4.344,-4.3464,-4.349,-4.3496,-4.3531,-4.3545,-4.357,-4.3603,-4.3646,-4.3674,-4.3715,-4.3787,-4.3796,-4.3818,-4.3825,-4.3831,-4.3838,-4.3878,-4.3889,-4.3775,-4.3775,-4.3775,0,0,-4.3304,-4.3335,-4.3363,-4.3427,-4.3454,-4.35,-4.3476,-4.3525,-4.3559,-4.3552,-4.3614,-4.3633,-4.367,-4.3738,-4.3769,-4.3756,-4.3872,-4.3838,-4.3842,-4.3846,-4.3884,-4.3895,-4.3904,-4.3778,-4.3778,-4.3777,0,0,-4.3374,-4.3402,-4.3456,-4.3484,-4.3526,-4.3542,-4.3554,-4.3595,-4.3608,-4.367,-4.3666,-4.3706,-4.3779,-4.3807,-4.383,-4.3911,-4.3905,-4.3924,-4.3962,-4.4001,-4.401,-4.4018,-4.4047,-4.4057,-4.3931,-4.3931,-4.3931,0,-4.34,-4.3471,-4.3483,-4.3535,-4.3562,-4.3559,-4.3613,-4.3639,-4.3692,-4.3711,-4.3695,-4.3788,-4.3813,-4.3888,-4.3908,-4.3927,-4.3941,-4.392,-4.4008,-4.4016,-4.4023,-4.4051,-4.4062,-4.3933,-4.3933,-4.3933,-4.3932,0,-4.35,-4.355,-4.3588,-4.3641,-4.3673,-4.3725,-4.3744,-4.3775,-4.3778,-4.3794,-4.3858,-4.3888,-4.3935,-4.3953,-4.3956,-4.4028,-4.4019,-4.4005,-4.3977,-4.4036,-4.4063,-4.4073,-4.3936,-4.3935,-4.3935,-4.3934,0,0,-4.3582,-4.3643,-4.3657,-4.3681,-4.3728,-4.3765,-4.3817,-4.3865,-4.3891,-4.3927,-4.3971,-4.4034,-4.4022,-4.4049,-4.4054,-4.4088,-4.4151,-4.4071,-4.4072,-4.4085,-4.4233,-4.4243,-4.4255,-4.4147,-4.4149,-4.4151,-4.423,0,-4.3657,-4.3751,-4.3764,-4.3846,-4.3892,-4.3889,-4.3934,-4.3967,-4.3984,-4.4024,-4.4041,-4.4086,-4.4067,-4.4083,-4.4116,-4.4136,-4.4181,-4.4131,-4.4187,-4.4189,-4.4178,-4.4269,-4.428,-4.4354,-4.424,-4.4242,-4.4243,0,-4.3757,-4.3799,-4.3886,-4.3927,-4.3947,-4.3987,-4.4033,-4.4071,-4.4108,-4.4118,-4.4148,-4.415,-4.4202,-4.4171,-4.4243,-4.4209,-4.4232,-4.4245,-4.4249,-4.4255,-4.422,-4.4278,-4.4377,-4.4388,-4.426,-4.4258,-4.4257,0,-4.381,-4.3887,-4.3949,-4.397,-4.4019,-4.4048,-4.4069,-4.4104,-4.4133,-4.4172,-4.419,-4.4234,-4.4259,-4.4292,-4.4305,-4.4281,-4.4376,-4.4347,-4.4386,-4.4385,-4.4406,-4.4405,-4.4511,-4.442,-4.442,-4.442,-4.442,0,-4.3892,-4.3946,-4.3974,-4.4012,-4.4072,-4.4086,-4.4144,-4.4164,-4.4195,-4.4237,-4.4236,-4.4275,-4.429,-4.433,-4.434,-4.4399,-4.4409,-4.4418,-4.442,-4.4419,-4.4418,-4.4435,-4.443,-4.4423,-4.4422,-4.4422,-4.4421,0,-4.3961,-4.3982,-4.405,-4.4092,-4.4103,-4.4146,-4.418,-4.4217,-4.4233,-4.4286,-4.4299,-4.4324,-4.4372,-4.4389,-4.4446,-4.4453,-4.4521,-4.4518,-4.4509,-4.451,-4.4548,-4.4545,-4.4669,-4.4686,-4.4584,-4.4585,-4.4586,0,-4.4013,-4.4055,-4.4101,-4.413,-4.4153,-4.4199,-4.4229,-4.4243,-4.4274,-4.4319,-4.435,-4.4398,-4.4437,-4.4514,-4.4536,-4.458,-4.4579,-4.462,-4.4586,-4.4583,-4.458,-4.4578,-4.4583,-4.4626,-4.4627,-4.4628,-4.4629,0,-4.4103,-4.4112,-4.4156,-4.4203,-4.4239,-4.4276,-4.4312,-4.4335,-4.4355,-4.4389,-4.4439,-4.447,-4.4529,-4.4577,-4.4622,-4.4642,-4.4639,-4.4639,-4.4651,-4.465,-4.4643,-4.4648,-4.4527,-4.4637,-4.4636,-4.4635,-4.4635,-4.4635,-4.4166,-4.4203,-4.4242,-4.4291,-4.432,-4.4354,-4.4391,-4.4413,-4.4455,-4.4506,-4.4511,-4.4565,-4.46,-4.4661,-4.4684,-4.4725,-4.4714,-4.473,-4.4734,-4.4738,-4.4742,-4.4636,-4.4733,-4.4733,-4.4733,-4.4733,-4.4732,0,-4.4257,-4.4282,-4.4327,-4.4379,-4.4417,-4.4412,-4.4452,-4.4483,-4.4531,-4.4565,-4.4605,-4.4662,-4.4708,-4.4735,-4.478,-4.4808,-4.4808,-4.482,-4.4818,-4.4823,-4.4749,-4.4735,-4.482,-4.482,-4.482,-4.482,-4.482,-4.482,-4.4309,-4.4372,-4.4385,-4.4462,-4.4486,-4.4541,-4.4564,-4.4595,-4.4623,-4.4687,-4.4726,-4.4744,-4.4775,-4.4823,-4.4865,-4.4871,-4.4888,-4.4902,-4.4907,-4.4837,-4.4828,-4.482,-4.4807,-4.4905,-4.4905,-4.4978,-4.4978,-4.4979]}]]